[[{"header":{"parameterUnit":"m.s-1","parameterCategory":1,"la1":30.2992,"la2":30.254,"lo1":-89.0895,"lo2":-89.0443,"dy":0.0025,"dx":0.0025,"nx":19,"ny":19,"refTime":"2026-04-28T09:00:00:Z","depth":0,"parameterNumber":2,"parameterNumberName":"U-component_of_WINDS"},"data":[0,0,0,4.679,4.6795,4.702,4.7021,4.7326,4.7329,0,0,0,0,0,0,0,0,0,0,0,4.6732,4.6735,4.6789,4.6795,4.702,4.7021,4.7325,4.7329,0,0,0,0,0,0,0,0,0,0,0,4.6731,4.6734,4.6737,4.6796,4.702,4.7021,4.7324,4.7149,0,0,0,0,0,0,0,0,0,0,4.6928,4.6883,4.6733,4.6737,4.6798,4.702,4.7021,4.714,4.716,4.7231,0,4.7294,0,4.7316,4.735,4.7351,0,0,0,4.6789,4.6867,4.6919,4.6737,4.68,4.7019,4.6917,4.7151,4.7173,4.7257,4.7299,4.731,4.7321,4.7352,4.7354,4.7776,4.7778,0,0,4.6777,4.6778,4.6904,4.6934,4.6899,4.691,4.6924,4.7164,4.7211,4.73,4.7316,4.7326,4.7354,4.7357,4.7774,4.7776,0,0,0,4.6745,4.677,4.6816,4.6922,4.6961,4.6916,4.6933,4.72,4.7215,4.732,4.733,4.7356,4.736,4.7771,4.7775,4.7885,0,0,0,4.6737,4.6751,4.6811,4.6814,4.6957,4.7083,4.6964,4.7198,4.7225,4.7328,4.7356,4.7363,4.7769,4.7773,4.7877,4.7937,0,0,0,4.6715,4.6748,4.6784,4.6813,4.691,4.7079,4.7108,4.7204,4.7232,4.7351,4.7364,4.7767,4.7772,4.7869,4.7925,4.8046,0,0,0,4.6691,4.6882,4.6786,4.7003,4.6908,4.7146,4.7106,4.7284,4.7399,4.7358,4.7769,4.7774,4.7867,4.7917,4.8038,4.8147,4.8193,0,0,4.6933,4.6911,4.7039,4.6959,4.7213,4.7111,4.7383,4.7489,4.7501,4.7684,4.7694,4.7879,4.7924,4.8045,4.8454,4.849,0,0,0,4.7115,4.7207,4.7274,4.7382,4.7466,4.7543,4.7606,4.7645,4.78,4.7595,4.7957,4.7984,4.8055,4.8106,4.8138,4.8197,4.7799,4.7798,4.7798,4.7459,4.7461,4.7671,4.77,4.7806,4.7868,4.7954,4.8017,4.7991,4.8077,4.813,4.8378,4.8439,4.8462,4.8524,4.819,4.8191,4.8191,4.8191,4.7811,4.7939,4.7897,4.8085,4.8086,4.8245,4.8313,4.8288,4.8436,4.8339,4.8401,4.8292,4.8502,4.8556,4.82,4.8198,4.8197,4.8196,4.8196,4.8034,4.8096,4.8139,4.8294,4.8414,4.8437,4.858,4.8577,4.8576,4.8638,4.8693,4.8691,4.8686,4.8664,4.8665,4.8666,4.8667,4.8668,4.8668,4.8248,4.8293,4.8412,4.8516,4.8583,4.8673,4.8736,4.8804,4.8877,4.8864,4.8865,4.8828,4.8523,4.8445,4.8681,4.8679,4.8677,4.8676,4.8675,4.8601,4.852,4.8705,4.8773,4.8892,4.901,4.9004,4.9141,4.9197,4.9267,4.9217,4.8993,4.8971,4.8946,4.8882,4.9217,4.9217,4.9217,4.9217,4.8788,4.8776,4.8963,4.9071,4.9177,4.9189,4.9398,4.9449,4.9489,4.9523,4.9475,4.9389,4.9364,4.9357,4.9324,4.9263,4.9689,4.9689,4.9689,4.9003,4.9001,4.9179,4.9215,4.9307,4.9387,4.9582,4.9709,4.9738,4.9708,4.9549,4.953,4.9392,4.9347,4.9312,4.926,4.9149,0,0]},{"header":{"parameterUnit":"m.s-1","parameterCategory":1,"la1":30.2992,"la2":30.254,"lo1":-89.0895,"lo2":-89.0443,"dy":0.0025,"dx":0.0025,"nx":19,"ny":19,"refTime":"2026-04-28T09:00:00:Z","depth":0,"parameterNumber":3,"parameterNumberName":"V-component_of_WINDS"},"data":[0,0,0,1.1344,1.1346,1.1452,1.1453,1.1573,1.1574,0,0,0,0,0,0,0,0,0,0,0,1.1305,1.1306,1.1344,1.1347,1.1452,1.1453,1.1573,1.1574,0,0,0,0,0,0,0,0,0,0,0,1.1305,1.1306,1.1306,1.1347,1.1452,1.1453,1.1573,1.1498,0,0,0,0,0,0,0,0,0,0,1.1398,1.1355,1.1306,1.1307,1.1348,1.1452,1.1453,1.1495,1.1503,1.1519,0,1.1533,0,1.1555,1.1581,1.1582,0,0,0,1.1352,1.1348,1.1383,1.1307,1.1348,1.1452,1.1406,1.1499,1.1508,1.153,1.1535,1.154,1.1557,1.1582,1.1583,1.1661,1.1661,0,0,1.1346,1.132,1.1377,1.1389,1.1373,1.1403,1.1409,1.1505,1.1508,1.1535,1.1543,1.1559,1.1583,1.1584,1.1661,1.1661,0,0,0,1.1326,1.1316,1.1349,1.1383,1.1404,1.1406,1.1413,1.1504,1.1517,1.1544,1.1561,1.1583,1.1585,1.1661,1.1661,1.1641,0,0,0,1.1323,1.1304,1.1346,1.1331,1.1402,1.1456,1.141,1.1511,1.1522,1.156,1.1583,1.1586,1.1661,1.1661,1.1641,1.1636,0,0,0,1.1301,1.1301,1.1314,1.133,1.1374,1.1455,1.1473,1.1514,1.1532,1.1582,1.1586,1.1661,1.1661,1.1641,1.1636,1.1648,0,0,0,1.127,1.1295,1.1313,1.1347,1.1373,1.1441,1.1473,1.1525,1.1565,1.1584,1.1661,1.1661,1.1642,1.1637,1.1648,1.1654,1.1653,0,0,1.1286,1.1296,1.1317,1.1337,1.1395,1.1427,1.1482,1.1544,1.1572,1.1629,1.1632,1.1641,1.1636,1.1648,1.1661,1.166,0,0,0,1.1314,1.1329,1.135,1.1387,1.1434,1.1474,1.153,1.1553,1.1603,1.1597,1.1649,1.1647,1.1655,1.1659,1.1659,1.1667,1.1662,1.1662,1.1662,1.1299,1.1334,1.1372,1.1419,1.1454,1.1511,1.1542,1.1582,1.1607,1.1619,1.1636,1.164,1.1643,1.1643,1.1651,1.1642,1.1642,1.1642,1.1642,1.1326,1.1352,1.1384,1.1433,1.1469,1.1509,1.1564,1.158,1.1622,1.163,1.1639,1.1644,1.1642,1.1651,1.164,1.1641,1.1641,1.1641,1.1641,1.132,1.1339,1.1366,1.1422,1.1461,1.1507,1.1546,1.1578,1.1607,1.1616,1.1637,1.1638,1.1642,1.1624,1.1624,1.1624,1.1624,1.1624,1.1624,1.1304,1.1335,1.1364,1.1415,1.1442,1.1482,1.1537,1.1565,1.1603,1.1623,1.1623,1.1646,1.1635,1.1631,1.1624,1.1624,1.1624,1.1624,1.1624,1.1319,1.132,1.1365,1.1392,1.1454,1.149,1.1529,1.1581,1.1608,1.1626,1.1647,1.1634,1.1645,1.1646,1.1643,1.164,1.164,1.164,1.164,1.1314,1.1323,1.1376,1.1416,1.146,1.15,1.1548,1.159,1.1635,1.1653,1.1658,1.1657,1.1656,1.1668,1.1668,1.1666,1.1669,1.1669,1.1669,1.1325,1.1339,1.1375,1.1418,1.1469,1.151,1.1557,1.1601,1.1651,1.1671,1.1668,1.1667,1.1665,1.1663,1.1683,1.1683,1.168,0,0]}]]